When you browse on this site, cookies collect data to enhance your experience and personalize the content and advertising you see.
Visit our Privacy Policy to learn more. By continuing to use the site, you agree to this use of cookies and data.
  • In Spain
  • List of Countries
  • For 7 days
  • Water Temperature
  • Weather Map
  • Weather Widgets
  • user-avatar
    Login

    Hourly Weather Jarim

    Today, 21 January, Tuesday

    Time Temperature Precipitation Wind Pressure Humidity
    00:00 +12°C° 0 mm 1 mps 553 mmHg 42%
    01:00 +10°C° 0 mm 0 mps 552 mmHg 43%
    02:00 +9°C° 0 mm 0 mps 552 mmHg 44%
    03:00 +9°C° 0 mm 0 mps 551 mmHg 48%
    04:00 +8°C° 0 mm 0 mps 551 mmHg 49%
    05:00 +8°C° 0 mm 0 mps 551 mmHg 50%
    06:00 +7°C° 0 mm 0 mps 551 mmHg 50%
    07:00 +10°C° 0 mm 1 mps 552 mmHg 48%
    08:00 +11°C° 0 mm 1 mps 553 mmHg 45%
    09:00 +13°C° 0 mm 1 mps 554 mmHg 42%
    10:00 +14°C° 0 mm 2 mps 554 mmHg 42%
    11:00 +14°C° 0 mm 3 mps 555 mmHg 42%
    12:00 +16°C° 0 mm 3 mps 555 mmHg 42%
    13:00 +16°C° 0 mm 3 mps 554 mmHg 45%
    14:00 +15°C° 0 mm 4 mps 554 mmHg 47%
    15:00 +15°C° 0 mm 4 mps 553 mmHg 50%
    16:00 +14°C° 0 mm 4 mps 553 mmHg 56%
    17:00 +14°C° 0 mm 3 mps 553 mmHg 62%
    18:00 +13°C° 0 mm 3 mps 552 mmHg 69%
    19:00 +13°C° 0 mm 2 mps 552 mmHg 71%
    20:00 +12°C° 0 mm 1 mps 553 mmHg 74%
    21:00 +12°C° 0 mm 1 mps 553 mmHg 76%
    22:00 +12°C° 0 mm 1 mps 552 mmHg 79%
    23:00 +11°C° 0 mm 1 mps 552 mmHg 81%

    Tomorrow, 22 January, Wednesday

    Time Temperature Precipitation Wind Pressure Humidity
    00:00 +11°C° 0 mm 1 mps 551 mmHg 84%
    01:00 +10°C° 0 mm 1 mps 551 mmHg 86%
    02:00 +10°C° 0 mm 1 mps 551 mmHg 89%
    03:00 +9°C° 0 mm 1 mps 550 mmHg 91%
    04:00 +9°C° 0 mm 1 mps 550 mmHg 90%
    05:00 +9°C° 0 mm 1 mps 550 mmHg 89%
    06:00 +9°C° 0 mm 1 mps 551 mmHg 88%
    07:00 +10°C° 0 mm 1 mps 551 mmHg 83%
    08:00 +10°C° 0 mm 2 mps 552 mmHg 77%
    09:00 +12°C° 0 mm 2 mps 553 mmHg 72%
    10:00 +12°C° 0 mm 3 mps 553 mmHg 66%
    11:00 +13°C° 0 mm 3 mps 553 mmHg 60%
    12:00 +14°C° 0 mm 4 mps 554 mmHg 53%
    13:00 +14°C° 0 mm 4 mps 553 mmHg 56%
    14:00 +14°C° 0 mm 4 mps 553 mmHg 58%
    15:00 +14°C° 0 mm 4 mps 552 mmHg 60%
    16:00 +13°C° 0 mm 4 mps 552 mmHg 66%
    17:00 +13°C° 0 mm 3 mps 552 mmHg 71%
    18:00 +12°C° 0 mm 3 mps 551 mmHg 76%
    19:00 +12°C° 0 mm 2 mps 552 mmHg 79%
    20:00 +12°C° 0 mm 2 mps 552 mmHg 82%
    21:00 +12°C° 0 mm 1 mps 552 mmHg 84%
    22:00 +11°C° 0 mm 1 mps 552 mmHg 85%
    23:00 +11°C° 0 mm 1 mps 552 mmHg 85%

    Day after tomorrow, 23 January, Thursday

    Time Temperature Precipitation Wind Pressure Humidity
    00:00 +11°C° 0 mm 1 mps 551 mmHg 86%
    01:00 +11°C° 0 mm 1 mps 551 mmHg 86%
    02:00 +10°C° 0 mm 2 mps 551 mmHg 87%
    03:00 +9°C° 0 mm 2 mps 550 mmHg 87%
    04:00 +9°C° 0 mm 2 mps 550 mmHg 89%
    05:00 +10°C° 0 mm 1 mps 550 mmHg 90%
    06:00 +9°C° 0 mm 1 mps 550 mmHg 91%
    07:00 +9°C° 0 mm 2 mps 551 mmHg 84%
    08:00 +10°C° 0 mm 2 mps 552 mmHg 77%
    09:00 +13°C° 0 mm 2 mps 553 mmHg 70%
    10:00 +13°C° 0.1 mm 2 mps 553 mmHg 72%
    11:00 +12°C° 0.1 mm 3 mps 553 mmHg 74%
    12:00 +12°C° 0.1 mm 3 mps 553 mmHg 76%
    13:00 +12°C° 0.3 mm 3 mps 552 mmHg 78%
    14:00 +11°C° 0.3 mm 3 mps 552 mmHg 80%
    15:00 +11°C° 0.3 mm 3 mps 551 mmHg 82%
    16:00 +11°C° 0.1 mm 3 mps 551 mmHg 83%
    17:00 +11°C° 0.1 mm 3 mps 551 mmHg 84%
    18:00 +10°C° 0.1 mm 3 mps 552 mmHg 85%
    19:00 +10°C° 0 mm 2 mps 552 mmHg 86%
    20:00 +10°C° 0 mm 2 mps 552 mmHg 87%
    21:00 +11°C° 0 mm 1 mps 552 mmHg 88%
    22:00 +10°C° 0 mm 1 mps 552 mmHg 88%
    23:00 +10°C° 0 mm 1 mps 552 mmHg 88%

    24 January, Friday

    Time Temperature Precipitation Wind Pressure Humidity
    00:00 +9°C° 0 mm 0 mps 552 mmHg 88%
    01:00 +9°C° 0 mm 0 mps 551 mmHg 90%
    02:00 +9°C° 0 mm 1 mps 551 mmHg 91%
    03:00 +9°C° 0 mm 1 mps 550 mmHg 92%
    04:00 +9°C° 0 mm 1 mps 551 mmHg 91%
    05:00 +9°C° 0 mm 1 mps 551 mmHg 90%
    06:00 +9°C° 0 mm 1 mps 552 mmHg 89%
    07:00 +10°C° 0 mm 1 mps 553 mmHg 83%
    08:00 +11°C° 0 mm 1 mps 553 mmHg 78%
    09:00 +12°C° 0 mm 1 mps 554 mmHg 72%
    10:00 +13°C° 0.1 mm 1 mps 554 mmHg 69%
    11:00 +14°C° 0.1 mm 2 mps 554 mmHg 67%
    12:00 +14°C° 0.1 mm 3 mps 554 mmHg 65%
    13:00 +14°C° 0.2 mm 3 mps 554 mmHg 65%
    14:00 +14°C° 0.2 mm 4 mps 554 mmHg 65%
    15:00 +14°C° 0.2 mm 4 mps 553 mmHg 65%
    16:00 +13°C° 0.1 mm 4 mps 553 mmHg 68%
    17:00 +13°C° 0.1 mm 3 mps 553 mmHg 71%
    18:00 +12°C° 0.1 mm 3 mps 553 mmHg 74%
    19:00 +13°C° 0 mm 2 mps 553 mmHg 76%
    20:00 +12°C° 0 mm 1 mps 554 mmHg 78%
    21:00 +12°C° 0 mm 1 mps 554 mmHg 79%
    22:00 +12°C° 0 mm 1 mps 554 mmHg 79%
    23:00 +11°C° 0 mm 0 mps 554 mmHg 79%

    25 January, Saturday

    Time Temperature Precipitation Wind Pressure Humidity
    00:00 +10°C° 0 mm 0 mps 553 mmHg 78%
    01:00 +10°C° 0 mm 0 mps 553 mmHg 81%
    02:00 +9°C° 0 mm 0 mps 553 mmHg 83%
    03:00 +9°C° 0 mm 0 mps 552 mmHg 85%
    04:00 +9°C° 0 mm 0 mps 552 mmHg 85%
    05:00 +9°C° 0 mm 0 mps 553 mmHg 86%
    06:00 +8°C° 0 mm 0 mps 553 mmHg 86%
    07:00 +10°C° 0 mm 0 mps 554 mmHg 78%
    08:00 +11°C° 0 mm 0 mps 555 mmHg 69%
    09:00 +13°C° 0 mm 1 mps 556 mmHg 60%
    10:00 +15°C° 0 mm 1 mps 556 mmHg 56%
    11:00 +16°C° 0 mm 2 mps 556 mmHg 51%
    12:00 +17°C° 0 mm 3 mps 556 mmHg 46%
    13:00 +17°C° 0.1 mm 3 mps 556 mmHg 50%
    14:00 +17°C° 0.1 mm 3 mps 555 mmHg 53%
    15:00 +17°C° 0.1 mm 3 mps 555 mmHg 57%
    16:00 +16°C° 0.2 mm 3 mps 555 mmHg 62%
    17:00 +15°C° 0.2 mm 2 mps 554 mmHg 67%
    18:00 +14°C° 0.2 mm 2 mps 554 mmHg 72%
    19:00 +14°C° 0.2 mm 2 mps 554 mmHg 69%
    20:00 +14°C° 0.2 mm 2 mps 555 mmHg 66%
    21:00 +14°C° 0.2 mm 2 mps 555 mmHg 63%
    22:00 +14°C° 0.1 mm 1 mps 555 mmHg 63%
    23:00 +13°C° 0.1 mm 1 mps 555 mmHg 63%

    26 January, Sunday

    Time Temperature Precipitation Wind Pressure Humidity
    00:00 +13°C° 0.1 mm 1 mps 554 mmHg 63%
    01:00 +12°C° 0 mm 1 mps 554 mmHg 66%
    02:00 +12°C° 0 mm 1 mps 554 mmHg 68%
    03:00 +11°C° 0 mm 1 mps 553 mmHg 70%
    04:00 +11°C° 0 mm 1 mps 553 mmHg 72%
    05:00 +10°C° 0 mm 1 mps 553 mmHg 74%
    06:00 +10°C° 0 mm 1 mps 553 mmHg 76%
    07:00 +11°C° 0 mm 1 mps 554 mmHg 73%
    08:00 +11°C° 0 mm 1 mps 555 mmHg 69%
    09:00 +12°C° 0 mm 1 mps 555 mmHg 66%
    10:00 +13°C° 0 mm 2 mps 556 mmHg 62%
    11:00 +14°C° 0 mm 2 mps 556 mmHg 59%
    12:00 +16°C° 0 mm 2 mps 556 mmHg 55%
    13:00 +16°C° 0.1 mm 2 mps 556 mmHg 57%
    14:00 +14°C° 0.1 mm 3 mps 555 mmHg 59%
    15:00 +14°C° 0.1 mm 3 mps 555 mmHg 61%
    16:00 +15°C° 0.1 mm 2 mps 555 mmHg 64%
    17:00 +14°C° 0.1 mm 2 mps 555 mmHg 68%
    18:00 +14°C° 0.1 mm 2 mps 554 mmHg 72%
    19:00 +13°C° 0.1 mm 2 mps 554 mmHg 73%
    20:00 +13°C° 0.1 mm 2 mps 554 mmHg 75%
    21:00 +12°C° 0.1 mm 2 mps 554 mmHg 76%
    22:00 +12°C° 0 mm 2 mps 554 mmHg 78%
    23:00 +10°C° 0 mm 2 mps 554 mmHg 80%
    Show more